Date_Time,Julian_Date,Latitude,Longitude,Instrument_Depth,U,V,Speed,Direction
(yyyy-mm-dd hh:mn:ss UTC),(JD),(+ deg. North),(+ deg. East),(m),(cm/s),(cm/s),(cm/s),(deg True)
1988-07-22 04:00:00 UTC,2447364.666667,28.6750,-92.0983,0018,1.95,2.78,3.3957,35.0473
1988-07-22 04:30:00 UTC,2447364.687500,28.6750,-92.0983,0018,3.53,6.90,7.7505,27.0940
1988-07-22 05:00:00 UTC,2447364.708333,28.6750,-92.0983,0018,3.00,1.10,3.1953,69.8637
1988-07-22 05:30:00 UTC,2447364.729167,28.6750,-92.0983,0018,2.73,7.93,8.3868,18.9967
1988-07-22 06:00:00 UTC,2447364.750000,28.6750,-92.0983,0018,-2.18,1.13,2.4555,297.3999
1988-07-22 06:30:00 UTC,2447364.770833,28.6750,-92.0983,0018,0.83,-1.03,1.3228,141.1373
1988-07-22 07:00:00 UTC,2447364.791667,28.6750,-92.0983,0018,-2.33,6.18,6.6046,339.3424
1988-07-22 07:30:00 UTC,2447364.812500,28.6750,-92.0983,0018,-3.43,3.45,4.8649,315.1666
1988-07-22 08:00:00 UTC,2447364.833333,28.6750,-92.0983,0018,-2.78,-4.33,5.1456,212.7018
1988-07-22 08:30:00 UTC,2447364.854167,28.6750,-92.0983,0018,0.98,-0.65,1.1760,123.5549
1988-07-22 09:00:00 UTC,2447364.875000,28.6750,-92.0983,0018,-0.48,-0.50,0.6931,223.8309
1988-07-22 09:30:00 UTC,2447364.895833,28.6750,-92.0983,0018,0.90,2.18,2.3585,22.4330
1988-07-22 10:00:00 UTC,2447364.916667,28.6750,-92.0983,0018,-2.63,0.83,2.7579,287.5151
1988-07-22 10:30:00 UTC,2447364.937500,28.6750,-92.0983,0018,1.48,12.55,12.6370,6.7257
1988-07-22 11:00:00 UTC,2447364.958333,28.6750,-92.0983,0018,1.23,1.58,2.0023,37.9001
1988-07-22 11:30:00 UTC,2447364.979167,28.6750,-92.0983,0018,1.07,2.90,3.0911,20.2523
1988-07-22 12:00:00 UTC,2447365.000000,28.6750,-92.0983,0018,-0.15,9.88,9.8811,359.1302
1988-07-22 12:30:00 UTC,2447365.020833,28.6750,-92.0983,0018,2.07,7.45,7.7322,15.5281
1988-07-22 13:00:00 UTC,2447365.041667,28.6750,-92.0983,0018,-2.45,0.43,2.4874,279.9546
1988-07-22 13:30:00 UTC,2447365.062500,28.6750,-92.0983,0018,0.98,1.70,1.9622,29.9622
1988-07-22 14:00:00 UTC,2447365.083333,28.6750,-92.0983,0018,-5.00,-0.75,5.0559,261.4692
1988-07-22 14:30:00 UTC,2447365.104167,28.6750,-92.0983,0018,1.50,-5.68,5.8747,165.2068
1988-07-22 15:00:00 UTC,2447365.125000,28.6750,-92.0983,0018,12.90,8.83,15.6326,55.6085
1988-07-22 15:30:00 UTC,2447365.145833,28.6750,-92.0983,0018,-1.53,-2.08,2.5821,216.3373
1988-07-22 16:00:00 UTC,2447365.166667,28.6750,-92.0983,0018,1.60,-10.53,10.6509,171.3602
1988-07-22 16:30:00 UTC,2447365.187500,28.6750,-92.0983,0018,-4.25,1.73,4.5886,292.1492
1988-07-22 17:00:00 UTC,2447365.208333,28.6750,-92.0983,0018,-0.48,-0.43,0.6444,228.1450
1988-07-22 17:30:00 UTC,2447365.229167,28.6750,-92.0983,0018,4.58,-1.80,4.9210,111.4555
1988-07-22 18:00:00 UTC,2447365.250000,28.6750,-92.0983,0018,-2.68,-1.65,3.1472,238.3806
1988-07-22 18:30:00 UTC,2447365.270833,28.6750,-92.0983,0018,4.53,-1.78,4.8672,111.4516
1988-07-22 19:00:00 UTC,2447365.291667,28.6750,-92.0983,0018,-0.23,2.60,2.6102,354.9447
1988-07-22 19:30:00 UTC,2447365.312500,28.6750,-92.0983,0018,-2.35,-2.25,3.2535,226.2454
1988-07-22 20:00:00 UTC,2447365.333333,28.6750,-92.0983,0018,5.73,-9.93,11.4646,150.0134
1988-07-22 20:30:00 UTC,2447365.354167,28.6750,-92.0983,0018,3.00,-1.48,3.3452,116.2587
1988-07-22 21:00:00 UTC,2447365.375000,28.6750,-92.0983,0018,-2.15,13.38,13.5516,350.8713
1988-07-22 21:30:00 UTC,2447365.395833,28.6750,-92.0983,0018,-1.55,19.48,19.5416,355.4506
1988-07-22 22:00:00 UTC,2447365.416667,28.6750,-92.0983,0018,1.75,23.23,23.2958,4.3082
1988-07-22 22:30:00 UTC,2447365.437500,28.6750,-92.0983,0018,2.30,21.05,21.1753,6.2356
1988-07-22 23:00:00 UTC,2447365.458333,28.6750,-92.0983,0018,-0.25,18.90,18.9017,359.2422
1988-07-22 23:30:00 UTC,2447365.479167,28.6750,-92.0983,0018,1.33,21.73,21.7707,3.5025
1988-07-23 00:00:00 UTC,2447365.500000,28.6750,-92.0983,0018,1.30,22.35,22.3878,3.3289
1988-07-23 00:30:00 UTC,2447365.520833,28.6750,-92.0983,0018,1.68,16.88,16.9634,5.6837
1988-07-23 01:00:00 UTC,2447365.541667,28.6750,-92.0983,0018,6.08,15.88,17.0041,20.9504
1988-07-23 01:30:00 UTC,2447365.562500,28.6750,-92.0983,0018,4.40,7.05,8.3104,31.9688
1988-07-23 02:00:00 UTC,2447365.583333,28.6750,-92.0983,0018,2.98,9.45,9.9087,17.5024
1988-07-23 02:30:00 UTC,2447365.604167,28.6750,-92.0983,0018,3.53,15.95,16.3360,12.4794
1988-07-23 03:00:00 UTC,2447365.625000,28.6750,-92.0983,0018,7.60,17.38,18.9690,23.6190
1988-07-23 03:30:00 UTC,2447365.645833,28.6750,-92.0983,0018,4.90,6.95,8.5037,35.1852
1988-07-23 04:00:00 UTC,2447365.666667,28.6750,-92.0983,0018,5.18,1.63,5.4304,72.5327
1988-07-23 04:30:00 UTC,2447365.687500,28.6750,-92.0983,0018,-0.35,-1.63,1.6672,192.1188
1988-07-23 05:00:00 UTC,2447365.708333,28.6750,-92.0983,0018,8.90,-1.80,9.0802,101.4337
1988-07-23 05:30:00 UTC,2447365.729167,28.6750,-92.0983,0018,11.65,3.03,12.0376,75.4212
1988-07-23 06:00:00 UTC,2447365.750000,28.6750,-92.0983,0018,9.80,1.05,9.8561,83.8845
1988-07-23 06:30:00 UTC,2447365.770833,28.6750,-92.0983,0018,8.75,-3.75,9.5197,113.1986
1988-07-23 07:00:00 UTC,2447365.791667,28.6750,-92.0983,0018,9.55,-4.08,10.3850,113.1334
1988-07-23 07:30:00 UTC,2447365.812500,28.6750,-92.0983,0018,8.68,-5.13,10.0826,120.5837
1988-07-23 08:00:00 UTC,2447365.833333,28.6750,-92.0983,0018,8.80,-7.90,11.8258,131.9152
1988-07-23 08:30:00 UTC,2447365.854167,28.6750,-92.0983,0018,13.33,-7.75,15.4192,120.1735
1988-07-23 09:00:00 UTC,2447365.875000,28.6750,-92.0983,0018,16.88,-10.93,20.1097,122.9235
1988-07-23 09:30:00 UTC,2447365.895833,28.6750,-92.0983,0018,8.13,-8.88,12.0396,137.5246
1988-07-23 10:00:00 UTC,2447365.916667,28.6750,-92.0983,0018,5.43,-3.53,6.4766,123.0276
1988-07-23 10:30:00 UTC,2447365.937500,28.6750,-92.0983,0018,4.78,-8.43,9.6909,150.4458
1988-07-23 11:00:00 UTC,2447365.958333,28.6750,-92.0983,0018,4.63,-9.33,10.4157,153.6071
1988-07-23 11:30:00 UTC,2447365.979167,28.6750,-92.0983,0018,2.07,-9.50,9.7229,167.7077
1988-07-23 12:00:00 UTC,2447366.000000,28.6750,-92.0983,0018,2.27,-11.60,11.8200,168.9277
1988-07-23 12:30:00 UTC,2447366.020833,28.6750,-92.0983,0018,2.88,-7.13,7.6897,158.0049
1988-07-23 13:00:00 UTC,2447366.041667,28.6750,-92.0983,0018,-0.78,1.70,1.8704,335.3532
1988-07-23 13:30:00 UTC,2447366.062500,28.6750,-92.0983,0018,-1.43,4.78,4.9893,343.3448
1988-07-23 14:00:00 UTC,2447366.083333,28.6750,-92.0983,0018,-1.33,0.83,1.5677,301.9666
1988-07-23 14:30:00 UTC,2447366.104167,28.6750,-92.0983,0018,5.00,-9.55,10.7797,152.3652
1988-07-23 15:00:00 UTC,2447366.125000,28.6750,-92.0983,0018,-0.75,-2.00,2.1360,200.5561
1988-07-23 15:30:00 UTC,2447366.145833,28.6750,-92.0983,0018,2.15,-0.78,2.2871,109.9403
1988-07-23 16:00:00 UTC,2447366.166667,28.6750,-92.0983,0018,1.33,-1.38,1.9166,136.0570
1988-07-23 16:30:00 UTC,2447366.187500,28.6750,-92.0983,0018,-1.60,1.85,2.4459,319.1446
1988-07-23 17:00:00 UTC,2447366.208333,28.6750,-92.0983,0018,-2.10,0.68,2.2074,287.9424
1988-07-23 17:30:00 UTC,2447366.229167,28.6750,-92.0983,0018,1.63,-3.23,3.6180,153.2225
1988-07-23 18:00:00 UTC,2447366.250000,28.6750,-92.0983,0018,-1.78,-6.03,6.2872,196.4461
1988-07-23 18:30:00 UTC,2447366.270833,28.6750,-92.0983,0018,-0.25,-2.53,2.5423,185.6433
1988-07-23 19:00:00 UTC,2447366.291667,28.6750,-92.0983,0018,-0.95,0.40,1.0308,292.8336
1988-07-23 19:30:00 UTC,2447366.312500,28.6750,-92.0983,0018,2.53,-1.73,3.0649,124.3641
1988-07-23 20:00:00 UTC,2447366.333333,28.6750,-92.0983,0018,3.08,-9.40,9.8917,161.8581
1988-07-23 20:30:00 UTC,2447366.354167,28.6750,-92.0983,0018,1.40,-1.23,1.8636,131.3016
1988-07-23 21:00:00 UTC,2447366.375000,28.6750,-92.0983,0018,-0.73,1.93,2.0634,339.2815
1988-07-23 21:30:00 UTC,2447366.395833,28.6750,-92.0983,0018,2.48,-4.10,4.7917,148.8312
1988-07-23 22:00:00 UTC,2447366.416667,28.6750,-92.0983,0018,-0.45,1.65,1.7103,344.7449
1988-07-23 22:30:00 UTC,2447366.437500,28.6750,-92.0983,0018,-1.13,-2.48,2.7253,204.4962
1988-07-23 23:00:00 UTC,2447366.458333,28.6750,-92.0983,0018,0.65,-0.68,0.9407,136.2922
1988-07-23 23:30:00 UTC,2447366.479167,28.6750,-92.0983,0018,1.90,5.95,6.2460,17.7097
1988-07-24 00:00:00 UTC,2447366.500000,28.6750,-92.0983,0018,-0.70,9.70,9.7252,355.8724
1988-07-24 00:30:00 UTC,2447366.520833,28.6750,-92.0983,0018,0.73,10.20,10.2261,4.0936
1988-07-24 01:00:00 UTC,2447366.541667,28.6750,-92.0983,0018,2.05,10.80,10.9928,10.7477
1988-07-24 01:30:00 UTC,2447366.562500,28.6750,-92.0983,0018,3.03,12.08,12.4542,14.0809
1988-07-24 02:00:00 UTC,2447366.583333,28.6750,-92.0983,0018,1.70,13.05,13.1603,7.4220
1988-07-24 02:30:00 UTC,2447366.604167,28.6750,-92.0983,0018,8.25,15.78,17.8065,27.6012
1988-07-24 03:00:00 UTC,2447366.625000,28.6750,-92.0983,0018,1.63,4.78,5.0503,18.8296
1988-07-24 03:30:00 UTC,2447366.645833,28.6750,-92.0983,0018,6.45,9.25,11.2767,34.8880
1988-07-24 04:00:00 UTC,2447366.666667,28.6750,-92.0983,0018,6.40,5.90,8.7046,47.3278
1988-07-24 04:30:00 UTC,2447366.687500,28.6750,-92.0983,0018,10.40,6.78,12.4148,56.8987
1988-07-24 05:00:00 UTC,2447366.708333,28.6750,-92.0983,0018,16.75,5.90,17.7587,70.5957
1988-07-24 05:30:00 UTC,2447366.729167,28.6750,-92.0983,0018,12.23,3.08,12.6119,75.8646
1988-07-24 06:00:00 UTC,2447366.750000,28.6750,-92.0983,0018,8.55,1.85,8.7479,77.7909
1988-07-24 06:30:00 UTC,2447366.770833,28.6750,-92.0983,0018,11.45,2.55,11.7305,77.4447
1988-07-24 07:00:00 UTC,2447366.791667,28.6750,-92.0983,0018,17.90,-1.80,17.9903,95.7423
1988-07-24 07:30:00 UTC,2447366.812500,28.6750,-92.0983,0018,28.75,-8.18,29.8911,105.8822
1988-07-24 08:00:00 UTC,2447366.833333,28.6750,-92.0983,0018,23.53,-12.20,26.5047,117.4062
1988-07-24 08:30:00 UTC,2447366.854167,28.6750,-92.0983,0018,26.32,-13.28,29.4805,116.7737
1988-07-24 09:00:00 UTC,2447366.875000,28.6750,-92.0983,0018,19.18,-9.23,21.2853,115.6983
1988-07-24 09:30:00 UTC,2447366.895833,28.6750,-92.0983,0018,24.23,-14.88,28.4343,121.5547
1988-07-24 10:00:00 UTC,2447366.916667,28.6750,-92.0983,0018,16.82,-11.95,20.6329,125.3924
1988-07-24 10:30:00 UTC,2447366.937500,28.6750,-92.0983,0018,16.85,-17.98,24.6415,136.8582
1988-07-24 11:00:00 UTC,2447366.958333,28.6750,-92.0983,0018,11.28,-16.70,20.1526,145.9630
1988-07-24 11:30:00 UTC,2447366.979167,28.6750,-92.0983,0018,7.33,-11.08,13.2852,146.5133
1988-07-24 12:00:00 UTC,2447367.000000,28.6750,-92.0983,0018,1.63,-14.45,14.5416,173.5641
1988-07-24 12:30:00 UTC,2447367.020833,28.6750,-92.0983,0018,2.90,-10.13,10.5369,164.0247
1988-07-24 13:00:00 UTC,2447367.041667,28.6750,-92.0983,0018,2.40,-14.68,14.8749,170.7150
1988-07-24 13:30:00 UTC,2447367.062500,28.6750,-92.0983,0018,-1.15,-8.45,8.5279,187.7500
1988-07-24 14:00:00 UTC,2447367.083333,28.6750,-92.0983,0018,1.70,-19.13,19.2054,174.9217
1988-07-24 14:30:00 UTC,2447367.104167,28.6750,-92.0983,0018,1.93,-17.30,17.4073,173.6344
1988-07-24 15:00:00 UTC,2447367.125000,28.6750,-92.0983,0018,4.35,-14.33,14.9757,163.1139
1988-07-24 15:30:00 UTC,2447367.145833,28.6750,-92.0983,0018,0.98,-16.35,16.3793,176.5698
1988-07-24 16:00:00 UTC,2447367.166667,28.6750,-92.0983,0018,1.50,-16.28,16.3490,174.7358
1988-07-24 16:30:00 UTC,2447367.187500,28.6750,-92.0983,0018,-0.93,-11.40,11.4379,184.6638
1988-07-24 17:00:00 UTC,2447367.208333,28.6750,-92.0983,0018,-0.35,-11.25,11.2554,181.7820
1988-07-24 17:30:00 UTC,2447367.229167,28.6750,-92.0983,0018,4.70,-9.38,10.4916,153.3861
1988-07-24 18:00:00 UTC,2447367.250000,28.6750,-92.0983,0018,0.10,-1.10,1.1045,174.8056
1988-07-24 18:30:00 UTC,2447367.270833,28.6750,-92.0983,0018,-2.05,-14.98,15.1196,187.7925
1988-07-24 19:00:00 UTC,2447367.291667,28.6750,-92.0983,0018,-0.88,0.23,0.9096,284.6474
1988-07-24 19:30:00 UTC,2447367.312500,28.6750,-92.0983,0018,-9.78,-15.05,17.9486,213.0172
1988-07-24 20:00:00 UTC,2447367.333333,28.6750,-92.0983,0018,-1.13,-0.48,1.2277,246.9853
1988-07-24 20:30:00 UTC,2447367.354167,28.6750,-92.0983,0018,-6.10,-4.55,7.6100,233.2807
1988-07-24 21:00:00 UTC,2447367.375000,28.6750,-92.0983,0018,-12.90,-5.10,13.8716,248.4287
1988-07-24 21:30:00 UTC,2447367.395833,28.6750,-92.0983,0018,-7.03,-3.00,7.6434,246.8900
1988-07-24 22:00:00 UTC,2447367.416667,28.6750,-92.0983,0018,-2.95,0.60,3.0104,281.4966
1988-07-24 22:30:00 UTC,2447367.437500,28.6750,-92.0983,0018,-4.50,1.85,4.8654,292.3481
1988-07-24 23:00:00 UTC,2447367.458333,28.6750,-92.0983,0018,-9.33,5.93,11.0550,302.4394
1988-07-24 23:30:00 UTC,2447367.479167,28.6750,-92.0983,0018,-4.15,4.60,6.1954,317.9441
1988-07-25 00:00:00 UTC,2447367.500000,28.6750,-92.0983,0018,-3.90,5.13,6.4441,322.7567
1988-07-25 00:30:00 UTC,2447367.520833,28.6750,-92.0983,0018,-3.75,8.70,9.4738,336.6823
1988-07-25 01:00:00 UTC,2447367.541667,28.6750,-92.0983,0018,-1.40,6.73,6.8741,348.2487
1988-07-25 01:30:00 UTC,2447367.562500,28.6750,-92.0983,0018,-1.05,10.38,10.4330,354.2238
1988-07-25 02:00:00 UTC,2447367.583333,28.6750,-92.0983,0018,2.00,16.38,16.5016,6.9614
1988-07-25 02:30:00 UTC,2447367.604167,28.6750,-92.0983,0018,0.70,14.73,14.7466,2.7208
1988-07-25 03:00:00 UTC,2447367.625000,28.6750,-92.0983,0018,4.85,5.93,7.6608,39.2789
1988-07-25 03:30:00 UTC,2447367.645833,28.6750,-92.0983,0018,5.50,9.93,11.3514,28.9811
1988-07-25 04:00:00 UTC,2447367.666667,28.6750,-92.0983,0018,8.23,6.63,10.5683,51.1455
1988-07-25 04:30:00 UTC,2447367.687500,28.6750,-92.0983,0018,9.70,5.08,10.9497,62.3584
1988-07-25 05:00:00 UTC,2447367.708333,28.6750,-92.0983,0018,13.40,7.73,15.4697,60.0208
1988-07-25 05:30:00 UTC,2447367.729167,28.6750,-92.0983,0018,7.38,1.73,7.5801,76.8071
1988-07-25 06:00:00 UTC,2447367.750000,28.6750,-92.0983,0018,11.88,2.25,12.0912,79.2756
1988-07-25 06:30:00 UTC,2447367.770833,28.6750,-92.0983,0018,4.33,-0.58,4.3687,97.6293
1988-07-25 07:00:00 UTC,2447367.791667,28.6750,-92.0983,0018,11.43,-1.40,11.5154,96.9831
1988-07-25 07:30:00 UTC,2447367.812500,28.6750,-92.0983,0018,8.83,-2.55,9.1908,106.1081
1988-07-25 08:00:00 UTC,2447367.833333,28.6750,-92.0983,0018,1.53,-1.25,1.9757,129.2486
1988-07-25 08:30:00 UTC,2447367.854167,28.6750,-92.0983,0018,2.65,-1.00,2.8324,110.6744
1988-07-25 09:00:00 UTC,2447367.875000,28.6750,-92.0983,0018,4.83,-3.60,6.0240,126.6987
1988-07-25 09:30:00 UTC,2447367.895833,28.6750,-92.0983,0018,7.10,-4.53,8.4220,122.5390
1988-07-25 10:00:00 UTC,2447367.916667,28.6750,-92.0983,0018,6.33,-6.05,8.7562,133.7043
1988-07-25 10:30:00 UTC,2447367.937500,28.6750,-92.0983,0018,9.25,-12.28,15.3740,143.0108
1988-07-25 11:00:00 UTC,2447367.958333,28.6750,-92.0983,0018,2.73,-3.23,4.2292,139.7955
1988-07-25 11:30:00 UTC,2447367.979167,28.6750,-92.0983,0018,3.65,-5.70,6.7685,147.3665
1988-07-25 12:00:00 UTC,2447368.000000,28.6750,-92.0983,0018,-0.28,-8.45,8.4546,181.8979
1988-07-25 12:30:00 UTC,2447368.020833,28.6750,-92.0983,0018,3.10,-7.70,8.3006,158.0704
1988-07-25 13:00:00 UTC,2447368.041667,28.6750,-92.0983,0018,-0.65,-0.23,0.6895,250.5139
1988-07-25 13:30:00 UTC,2447368.062500,28.6750,-92.0983,0018,-0.38,-2.30,2.3312,189.3815
1988-07-25 14:00:00 UTC,2447368.083333,28.6750,-92.0983,0018,-0.13,-0.30,0.3270,203.4287
1988-07-25 14:30:00 UTC,2447368.104167,28.6750,-92.0983,0018,-1.48,-0.05,1.4808,268.0651
1988-07-25 15:00:00 UTC,2447368.125000,28.6750,-92.0983,0018,-1.20,-7.65,7.7435,188.9149
1988-07-25 15:30:00 UTC,2447368.145833,28.6750,-92.0983,0018,-3.68,-8.98,9.7048,202.2838
1988-07-25 16:00:00 UTC,2447368.166667,28.6750,-92.0983,0018,-1.90,-4.18,4.5916,204.4440
1988-07-25 16:30:00 UTC,2447368.187500,28.6750,-92.0983,0018,-1.05,-2.48,2.6931,202.9472
1988-07-25 17:00:00 UTC,2447368.208333,28.6750,-92.0983,0018,-1.63,-4.08,4.3936,201.7772
1988-07-25 17:30:00 UTC,2447368.229167,28.6750,-92.0983,0018,-1.80,-8.15,8.3464,192.4544
1988-07-25 18:00:00 UTC,2447368.250000,28.6750,-92.0983,0018,-6.15,-9.35,11.1913,213.3351
1988-07-25 18:30:00 UTC,2447368.270833,28.6750,-92.0983,0018,-14.38,-21.28,25.6831,214.0490
1988-07-25 19:00:00 UTC,2447368.291667,28.6750,-92.0983,0018,-4.05,-5.95,7.1976,214.2420
1988-07-25 19:30:00 UTC,2447368.312500,28.6750,-92.0983,0018,-9.35,-11.25,14.6282,219.7303
1988-07-25 20:00:00 UTC,2447368.333333,28.6750,-92.0983,0018,-9.20,-8.95,12.8352,225.7892
1988-07-25 20:30:00 UTC,2447368.354167,28.6750,-92.0983,0018,-5.83,-3.28,6.6893,240.6376
1988-07-25 21:00:00 UTC,2447368.375000,28.6750,-92.0983,0018,-12.05,-3.35,12.5070,254.4636
1988-07-25 21:30:00 UTC,2447368.395833,28.6750,-92.0983,0018,-4.35,0.38,4.3666,274.9925
1988-07-25 22:00:00 UTC,2447368.416667,28.6750,-92.0983,0018,-3.05,-0.63,3.1144,258.3293
1988-07-25 22:30:00 UTC,2447368.437500,28.6750,-92.0983,0018,-6.10,-0.55,6.1247,264.8479
1988-07-25 23:00:00 UTC,2447368.458333,28.6750,-92.0983,0018,-1.18,-0.40,1.2460,251.2742
1988-07-25 23:30:00 UTC,2447368.479167,28.6750,-92.0983,0018,-2.85,3.25,4.3226,318.7517
1988-07-26 00:00:00 UTC,2447368.500000,28.6750,-92.0983,0018,-2.08,2.02,2.8994,314.1616
1988-07-26 00:30:00 UTC,2447368.520833,28.6750,-92.0983,0018,-2.80,3.45,4.4433,320.9374
1988-07-26 01:00:00 UTC,2447368.541667,28.6750,-92.0983,0018,-5.93,5.45,8.0540,312.5847
1988-07-26 01:30:00 UTC,2447368.562500,28.6750,-92.0983,0018,1.70,-2.35,2.9004,144.1179
1988-07-26 02:00:00 UTC,2447368.583333,28.6750,-92.0983,0018,-0.48,2.07,2.1249,346.9448
1988-07-26 02:30:00 UTC,2447368.604167,28.6750,-92.0983,0018,-1.73,3.33,3.7526,332.5472
1988-07-26 03:00:00 UTC,2447368.625000,28.6750,-92.0983,0018,-1.45,7.35,7.4917,348.8401
1988-07-26 03:30:00 UTC,2447368.645833,28.6750,-92.0983,0018,1.73,8.40,8.5763,11.6375
1988-07-26 04:00:00 UTC,2447368.666667,28.6750,-92.0983,0018,1.23,1.07,1.6303,48.9794
1988-07-26 04:30:00 UTC,2447368.687500,28.6750,-92.0983,0018,0.43,3.90,3.9236,6.2918
1988-07-26 05:00:00 UTC,2447368.708333,28.6750,-92.0983,0018,1.30,0.33,1.3412,75.7565
1988-07-26 05:30:00 UTC,2447368.729167,28.6750,-92.0983,0018,0.73,-4.88,4.9343,171.4922
1988-07-26 06:00:00 UTC,2447368.750000,28.6750,-92.0983,0018,0.88,0.88,1.2445,45.0000
1988-07-26 06:30:00 UTC,2447368.770833,28.6750,-92.0983,0018,-1.23,-2.05,2.3907,210.9638
1988-07-26 07:00:00 UTC,2447368.791667,28.6750,-92.0983,0018,2.55,-0.43,2.5860,99.5716
1988-07-26 07:30:00 UTC,2447368.812500,28.6750,-92.0983,0018,2.65,-0.48,2.6931,100.2668
1988-07-26 08:00:00 UTC,2447368.833333,28.6750,-92.0983,0018,-0.70,-0.15,0.7159,257.9052
1988-07-26 08:30:00 UTC,2447368.854167,28.6750,-92.0983,0018,4.15,0.00,4.1500,90.0000
1988-07-26 09:00:00 UTC,2447368.875000,28.6750,-92.0983,0018,8.93,-1.23,9.0143,97.8425
1988-07-26 09:30:00 UTC,2447368.895833,28.6750,-92.0983,0018,6.90,-2.10,7.2125,106.9275
1988-07-26 10:00:00 UTC,2447368.916667,28.6750,-92.0983,0018,5.03,-4.30,6.6175,130.5262
1988-07-26 10:30:00 UTC,2447368.937500,28.6750,-92.0983,0018,1.75,-2.25,2.8504,142.1250
1988-07-26 11:00:00 UTC,2447368.958333,28.6750,-92.0983,0018,5.18,-5.23,7.3611,135.2752
1988-07-26 11:30:00 UTC,2447368.979167,28.6750,-92.0983,0018,2.23,-7.35,7.6808,163.1221
1988-07-26 12:00:00 UTC,2447369.000000,28.6750,-92.0983,0018,0.53,-5.23,5.2568,174.2135
1988-07-26 12:30:00 UTC,2447369.020833,28.6750,-92.0983,0018,0.55,-2.85,2.9026,169.0772
1988-07-26 13:00:00 UTC,2447369.041667,28.6750,-92.0983,0018,-0.68,0.88,1.1121,322.3058
1988-07-26 13:30:00 UTC,2447369.062500,28.6750,-92.0983,0018,-1.50,2.05,2.5402,323.8068
1988-07-26 14:00:00 UTC,2447369.083333,28.6750,-92.0983,0018,-1.40,0.58,1.5154,292.5035
1988-07-26 14:30:00 UTC,2447369.104167,28.6750,-92.0983,0018,2.38,5.85,6.3156,22.1383
1988-07-26 15:00:00 UTC,2447369.125000,28.6750,-92.0983,0018,-2.90,-3.00,4.1725,224.0290
1988-07-26 15:30:00 UTC,2447369.145833,28.6750,-92.0983,0018,2.35,2.83,3.6785,39.7059
1988-07-26 16:00:00 UTC,2447369.166667,28.6750,-92.0983,0018,-6.13,-3.23,6.9289,242.2145
1988-07-26 16:30:00 UTC,2447369.187500,28.6750,-92.0983,0018,-1.85,-4.50,4.8654,202.3481
1988-07-26 17:00:00 UTC,2447369.208333,28.6750,-92.0983,0018,-5.40,-0.78,5.4560,261.7808
1988-07-26 17:30:00 UTC,2447369.229167,28.6750,-92.0983,0018,0.33,5.18,5.1905,3.6452
1988-07-26 18:00:00 UTC,2447369.250000,28.6750,-92.0983,0018,0.63,1.43,1.5626,23.7763
1988-07-26 18:30:00 UTC,2447369.270833,28.6750,-92.0983,0018,-1.03,1.70,1.9877,328.7891
1988-07-26 19:00:00 UTC,2447369.291667,28.6750,-92.0983,0018,2.80,2.45,3.7206,48.8141
1988-07-26 19:30:00 UTC,2447369.312500,28.6750,-92.0983,0018,1.45,1.73,2.2573,39.9681
1988-07-26 20:00:00 UTC,2447369.333333,28.6750,-92.0983,0018,1.45,0.78,1.6465,61.7228
1988-07-26 20:30:00 UTC,2447369.354167,28.6750,-92.0983,0018,-4.55,-3.08,5.4944,235.9050
1988-07-26 21:00:00 UTC,2447369.375000,28.6750,-92.0983,0018,1.40,0.28,1.4277,78.6901
1988-07-26 21:30:00 UTC,2447369.395833,28.6750,-92.0983,0018,3.28,2.18,3.9384,56.3906
1988-07-26 22:00:00 UTC,2447369.416667,28.6750,-92.0983,0018,-0.07,-0.43,0.4357,189.2461
1988-07-26 22:30:00 UTC,2447369.437500,28.6750,-92.0983,0018,1.70,1.13,2.0413,56.3878
1988-07-26 23:00:00 UTC,2447369.458333,28.6750,-92.0983,0018,-0.58,1.40,1.5154,337.4965
1988-07-26 23:30:00 UTC,2447369.479167,28.6750,-92.0983,0018,-0.53,-1.33,1.4317,201.7271
1988-07-27 00:00:00 UTC,2447369.500000,28.6750,-92.0983,0018,-4.13,3.18,5.2124,307.5954
1988-07-27 00:30:00 UTC,2447369.520833,28.6750,-92.0983,0018,-7.53,5.38,9.2545,305.5449
1988-07-27 01:00:00 UTC,2447369.541667,28.6750,-92.0983,0018,0.90,0.00,0.9000,90.0000
1988-07-27 01:30:00 UTC,2447369.562500,28.6750,-92.0983,0018,0.83,-0.65,1.0542,128.0656
1988-07-27 02:00:00 UTC,2447369.583333,28.6750,-92.0983,0018,-5.00,5.80,7.6577,319.2364
1988-07-27 02:30:00 UTC,2447369.604167,28.6750,-92.0983,0018,-6.78,10.70,12.6672,327.6398
1988-07-27 03:00:00 UTC,2447369.625000,28.6750,-92.0983,0018,-3.43,6.83,7.6429,333.3344
1988-07-27 03:30:00 UTC,2447369.645833,28.6750,-92.0983,0018,-9.73,12.20,15.6049,321.4262
1988-07-27 04:00:00 UTC,2447369.666667,28.6750,-92.0983,0018,-0.13,-0.68,0.6923,190.8230
1988-07-27 04:30:00 UTC,2447369.687500,28.6750,-92.0983,0018,-3.83,6.80,7.8044,330.6103
1988-07-27 05:00:00 UTC,2447369.708333,28.6750,-92.0983,0018,0.78,0.70,1.0480,48.0941
1988-07-27 05:30:00 UTC,2447369.729167,28.6750,-92.0983,0018,-2.10,3.23,3.8526,326.9699
1988-07-27 06:00:00 UTC,2447369.750000,28.6750,-92.0983,0018,1.28,-0.45,1.3568,109.3698
1988-07-27 06:30:00 UTC,2447369.770833,28.6750,-92.0983,0018,1.60,-0.33,1.6337,101.6538
1988-07-27 07:00:00 UTC,2447369.791667,28.6750,-92.0983,0018,-0.03,1.45,1.4503,358.8147
1988-07-27 07:30:00 UTC,2447369.812500,28.6750,-92.0983,0018,1.13,-0.83,1.4021,126.2978
1988-07-27 08:00:00 UTC,2447369.833333,28.6750,-92.0983,0018,-2.55,0.93,2.7143,290.0372
1988-07-27 08:30:00 UTC,2447369.854167,28.6750,-92.0983,0018,-1.73,1.13,2.0663,303.1517
1988-07-27 09:00:00 UTC,2447369.875000,28.6750,-92.0983,0018,0.30,0.45,0.5408,33.6901
1988-07-27 09:30:00 UTC,2447369.895833,28.6750,-92.0983,0018,-1.20,1.95,2.2897,328.3925
1988-07-27 10:00:00 UTC,2447369.916667,28.6750,-92.0983,0018,1.33,7.20,7.3218,10.4658
1988-07-27 10:30:00 UTC,2447369.937500,28.6750,-92.0983,0018,0.20,1.50,1.5133,7.5946
1988-07-27 11:00:00 UTC,2447369.958333,28.6750,-92.0983,0018,-0.07,-3.73,3.7307,181.0751
1988-07-27 11:30:00 UTC,2447369.979167,28.6750,-92.0983,0018,2.73,-0.45,2.7668,99.3602
1988-07-27 12:00:00 UTC,2447370.000000,28.6750,-92.0983,0018,-0.45,1.45,1.5182,342.7585
1988-07-27 12:30:00 UTC,2447370.020833,28.6750,-92.0983,0018,-2.55,4.48,5.1549,330.3516
1988-07-27 13:00:00 UTC,2447370.041667,28.6750,-92.0983,0018,-1.58,-0.28,1.6046,259.9507
1988-07-27 13:30:00 UTC,2447370.062500,28.6750,-92.0983,0018,-1.25,-4.68,4.8441,194.9543
1988-07-27 14:00:00 UTC,2447370.083333,28.6750,-92.0983,0018,1.70,0.15,1.7066,84.9575
1988-07-27 14:30:00 UTC,2447370.104167,28.6750,-92.0983,0018,2.55,-7.90,8.3014,162.1107
1988-07-27 15:00:00 UTC,2447370.125000,28.6750,-92.0983,0018,0.28,-1.30,1.3298,167.8450
1988-07-27 15:30:00 UTC,2447370.145833,28.6750,-92.0983,0018,1.90,-2.25,2.9449,139.8208
1988-07-27 16:00:00 UTC,2447370.166667,28.6750,-92.0983,0018,-0.15,-0.93,0.9420,189.1624
1988-07-27 16:30:00 UTC,2447370.187500,28.6750,-92.0983,0018,1.10,-3.45,3.6211,162.3156
1988-07-27 17:00:00 UTC,2447370.208333,28.6750,-92.0983,0018,-2.03,-2.70,3.3780,216.9377
1988-07-27 17:30:00 UTC,2447370.229167,28.6750,-92.0983,0018,7.88,-3.05,8.4497,111.1592
1988-07-27 18:00:00 UTC,2447370.250000,28.6750,-92.0983,0018,-1.10,0.13,1.1077,276.7401
1988-07-27 18:30:00 UTC,2447370.270833,28.6750,-92.0983,0018,-0.58,-1.55,1.6550,200.5155